Vertical_Velocity
2 3 4 -2 -4 -4 -7 -2 -3 5 1 -0 2 2 2 1 2 -2 -1 3 3 -0 1 1 1 2 -1 -1 -2 1 -3 -2 -2 9 2 -1 -3 0 -0 -1 1 4 2
20 62 3 4 -3 -2 0 43 32 -2 11 -4 7 4 0 0 -5 -4 1 -4 0 -0 4 1 3 -2 0 1 -2 -1 -3 -1 -5 2 1 6 1 -2 -1 -2 -3 -1 1
11 13 14 43 -6 -4 -1 -11 -1 56 24 25 5 3 -1 -2 -2 -2 1 -4 -4 2 -0 -1 3 -3 -1 -0 1 -1 -4 -3 -1 -4 4 4 6 4 -3 -1 -0 -1 1
12 9 4 10 51 -6 25 4 11 31 -11 -14 8 8 5 4 -2 -2 1 0 -4 -4 -0 0 1 -2 -1 0 -1 -2 -2 -4 -3 -3 -4 -1 1 5 1 5 2 -8 -6
8 1 -1 8 10 32 2 42 1 -7 -3 13 -2 1 0 5 1 -2 -1 -0 2 1 -2 -6 -1 -1 -1 -1 -2 -1 -1 -0 -5 -5 -8 -0 -1 2 4 -0 -2 -1 -1
9 4 -2 -3 14 23 8 28 -4 12 0 -3 6 -1 0 0 1 -1 -2 -3 0 0 1 2 0 -1 2 -0 -2 -1 -2 -2 -1 -5 -3 -4 2 1 3 1 -7 -0 -11
-1 6 3 -5 3 -1 17 31 33 1 -2 0 5 5 1 -2 -1 -4 -2 0 -2 -1 -0 -2 -0 -1 -3 -3 -2 -4 -4 -1 -3 -3 -1 -4 -3 5 4 -2 2 -0 -5
-5 -5 -2 10 13 11 -1 -3 -6 25 27 3 2 -1 -1 0 1 -1 -1 -1 -3 -0 2 -1 -2 -0 1 -1 -4 -5 0 -1 -0 -1 -4 4 -2 0 -1 2 -2 -4 -4
3 1 -0 -8 -4 -4 -3 -5 -3 -0 11 -6 3 -2 -3 3 6 -3 0 -3 -0 0 -2 -2 1 1 -0 -6 -0 0 -2 1 1 -2 -5 -2 -1 -2 4 -3 -3 0 -6
1 -1 -1 1 -3 -1 -1 1 -3 -5 -6 -3 2 6 5 8 2 0 -0 -2 -3 -3 -1 2 -2 -1 -0 0 -3 -1 -1 7 -4 0 -2 -3 -2 -1 -2 5 1 2 -4
-2 -1 -0 -1 -1 -1 -4 -3 -3 -6 -2 1 -1 -1 -1 -3 4 -4 -1 -3 2 1 2 -2 -1 -1 -2 -1 -4 -2 5 -1 3 -2 0 -2 -2 -1 -3 -1 -1 3 -2
1 -1 -2 -1 -3 0 2 2 -4 -5 -3 -7 -1 0 -0 -0 -2 -0 -2 -1 -1 1 -0 -0 1 -1 -1 -0 -2 3 1 -0 -1 -1 -2 -1 -1 -3 -1 -1 -1 -1 1
3 -3 -0 -1 -0 3 -1 -6 -2 -2 2 -1 -4 -3 -1 1 -3 -5 -2 -1 1 0 -1 2 -2 -3 -2 1 -0 -1 3 -1 -3 0 -3 -1 -0 -1 0 -1 -2 -2 -0
-7 -7 -5 -2 -4 -3 0 -2 0 0 5 3 3 -2 -5 -2 -3 -5 -2 0 -0 0 1 -0 -1 -1 -1 0 -1 1 -1 -4 -2 1 -3 -1 -1 -4 1 -3 -1 -1 -1
-1 -4 -1 3 -3 -3 0 0 0 -0 3 1 1 1 -2 -2 -1 1 -1 -2 3 -2 1 1 -2 -1 1 1 1 1 -3 -2 -1 -1 -1 0 0 -0 1 1 -0 -1 -0
1 -1 -5 -3 -3 -2 -1 -2 2 -2 0 2 -5 -1 1 0 -3 3 2 -1 1 -0 -0 1 -1 1 1 1 2 2 -2 -1 -1 -1 1 1 0 -1 -1 3 1 -1 -2
-6 -5 -3 -3 -3 1 -0 2 2 3 -2 3 0 0 0 -1 -2 2 1 1 3 0 2 1 -0 2 1 2 2 1 0 0 -0 -0 1 1 1 1 -4 1 -2 2 -1
-2 -4 -3 0 0 -0 -2 -1 -2 -0 -1 -1 -1 -4 -2 0 1 -0 2 6 2 4 -1 -3 2 1 -0 -0 1 1 1 -2 1 2 1 3 3 -1 -3 -2 -2 -3 -1
-1 -0 -0 0 1 3 4 1 -1 -3 -4 -3 -2 -0 -2 -3 0 4 -0 3 2 0 1 0 2 0 0 1 1 1 0 0 3 2 2 2 2 2 3 3 1 -0 -3
3 3 0 -2 0 1 3 4 1 1 -3 -3 -1 0 2 -0 -2 3 1 3 5 2 1 4 2 -1 1 2 0 1 1 -2 1 2 3 0 1 2 1 2 2 1 1
1 0 -0 1 1 1 -3 -3 -1 0 -1 -0 -0 1 3 -0 -0 -1 1 2 2 2 3 3 0 -1 1 1 -0 -1 -1 -1 1 1 2 -2 -1 -0 0 1 -0 0 1
2 1 1 0 -1 -2 -1 0 -0 -2 -2 3 -0 -1 1 3 0 -0 -1 -2 -1 -0 1 -0 0 2 1 2 1 -0 1 -0 1 1 1 -1 0 -0 2 1 -0 -0 1
1 1 1 -0 -2 -3 -3 -3 -1 -1 -2 -4 3 1 1 2 2 -2 -1 0 1 -0 2 0 -2 -0 0 1 1 0 0 0 0 1 1 1 1 0 -1 -0 0 1 1
0 0 0 -1 -1 0 1 0 -1 -1 -0 0 1 3 2 2 1 1 1 -1 0 2 0 1 2 -0 -0 0 1 1 1 2 1 2 2 1 0 0 1 1 0 1 1
-0 0 0 -0 -1 0 1 2 2 2 2 1 2 1 0 2 3 2 2 2 2 0 1 1 2 2 3 3 2 1 0 -0 1 1 1 1 1 1 0 1 2 0 -1
-0 0 -0 0 1 0 -0 0 1 1 2 3 2 1 1 0 -1 1 2 2 1 1 1 0 1 -1 -0 -1 -1 0 -1 -2 -1 -1 -1 -1 -1 -0 -1 -2 -2 -2 0
Height
5489 5497 5505 5512 5521 5532 5540 5547 5555 5564 5573 5583 5592 5601 5609 5617 5625 5633 5641 5648 5655 5660 5666 5673 5678 5682 5688 5692 5697 5702 5706 5710 5714 5718 5720 5721 5723 5724 5725 5726 5727 5727 5728
5480 5485 5496 5504 5510 5521 5529 5535 5542 5555 5557 5569 5581 5590 5597 5604 5612 5619 5628 5635 5642 5648 5654 5660 5666 5670 5676 5681 5685 5689 5694 5698 5701 5704 5707 5709 5710 5711 5712 5713 5714 5713 5713
5475 5481 5487 5495 5503 5511 5520 5530 5539 5539 5546 5557 5567 5578 5586 5593 5601 5608 5616 5622 5629 5635 5641 5647 5653 5658 5664 5669 5673 5677 5680 5683 5687 5691 5694 5696 5698 5699 5700 5700 5700 5700 5700
5467 5473 5479 5484 5491 5503 5512 5519 5526 5535 5537 5551 5558 5566 5574 5582 5589 5596 5604 5611 5616 5622 5629 5634 5640 5646 5652 5656 5660 5664 5667 5670 5673 5677 5680 5683 5684 5685 5686 5687 5686 5685 5684
5459 5466 5473 5478 5483 5493 5502 5509 5517 5523 5530 5540 5549 5557 5563 5568 5578 5585 5592 5599 5606 5612 5617 5622 5628 5633 5638 5643 5647 5651 5655 5658 5660 5664 5666 5669 5671 5672 5671 5670 5670 5669 5670
5454 5459 5466 5472 5476 5480 5493 5495 5506 5514 5524 5532 5539 5546 5554 5561 5568 5575 5581 5588 5594 5600 5606 5611 5616 5621 5626 5630 5634 5638 5642 5645 5648 5650 5653 5656 5658 5658 5657 5655 5653 5653 5655
5445 5453 5459 5465 5468 5475 5479 5488 5497 5504 5514 5521 5529 5537 5544 5551 5558 5565 5571 5577 5583 5589 5594 5599 5604 5609 5613 5617 5621 5625 5629 5631 5634 5636 5640 5643 5644 5644 5641 5640 5639 5638 5639
5439 5444 5450 5455 5460 5466 5474 5482 5489 5493 5501 5510 5518 5526 5534 5540 5547 5554 5560 5566 5572 5577 5582 5587 5592 5596 5600 5604 5608 5612 5616 5618 5621 5623 5626 5628 5629 5629 5628 5626 5626 5624 5624
5433 5437 5443 5447 5453 5461 5468 5476 5483 5487 5493 5502 5507 5515 5524 5531 5537 5544 5550 5556 5562 5566 5571 5575 5580 5584 5588 5591 5596 5599 5602 5606 5607 5609 5611 5613 5614 5613 5614 5611 5611 5609 5608
5424 5430 5435 5440 5446 5452 5459 5467 5473 5480 5485 5491 5498 5507 5514 5521 5528 5534 5540 5546 5551 5557 5561 5564 5568 5573 5576 5579 5583 5587 5591 5593 5594 5597 5599 5599 5599 5599 5599 5597 5596 5593 5591
5416 5421 5427 5433 5438 5444 5450 5458 5465 5473 5478 5483 5491 5498 5506 5512 5518 5525 5531 5535 5541 5546 5550 5554 5558 5562 5565 5568 5571 5575 5578 5579 5581 5584 5585 5586 5586 5586 5585 5582 5581 5577 5575
5407 5413 5419 5426 5431 5437 5443 5449 5456 5463 5468 5476 5483 5489 5495 5503 5508 5515 5520 5526 5531 5536 5540 5545 5548 5551 5554 5557 5560 5563 5565 5566 5568 5571 5572 5573 5573 5573 5571 5567 5564 5562 5561
5394 5403 5411 5417 5422 5429 5435 5441 5448 5454 5459 5466 5475 5481 5488 5492 5499 5506 5511 5517 5521 5526 5530 5534 5537 5540 5543 5546 5549 5551 5552 5553 5555 5557 5559 5560 5560 5560 5557 5553 5549 5547 5547
5382 5389 5399 5408 5415 5421 5427 5433 5440 5446 5451 5459 5464 5471 5477 5483 5489 5496 5501 5506 5511 5515 5520 5524 5527 5530 5533 5535 5537 5539 5540 5541 5542 5544 5546 5547 5547 5547 5544 5540 5538 5536 5536
5371 5379 5386 5394 5403 5411 5419 5425 5431 5437 5444 5449 5455 5461 5466 5472 5478 5484 5490 5495 5500 5504 5510 5514 5518 5521 5523 5525 5526 5528 5529 5530 5531 5532 5533 5534 5535 5535 5533 5530 5528 5526 5527
5359 5366 5375 5384 5392 5400 5408 5415 5421 5426 5433 5439 5444 5450 5455 5460 5467 5473 5478 5484 5489 5494 5499 5504 5508 5511 5513 5515 5517 5518 5518 5518 5520 5521 5522 5523 5523 5524 5524 5521 5519 5518 5518
5352 5355 5362 5371 5381 5389 5397 5404 5409 5416 5422 5428 5434 5440 5445 5450 5456 5462 5468 5473 5478 5483 5488 5493 5498 5501 5504 5506 5508 5509 5508 5508 5510 5511 5513 5514 5515 5515 5516 5514 5513 5510 5510
5345 5348 5353 5359 5366 5374 5383 5391 5398 5404 5410 5416 5423 5429 5435 5440 5446 5451 5456 5462 5467 5472 5477 5482 5488 5491 5494 5496 5498 5500 5500 5499 5501 5502 5503 5505 5506 5507 5508 5507 5506 5505 5504
5340 5343 5346 5350 5353 5359 5367 5375 5383 5391 5398 5405 5413 5419 5425 5430 5436 5441 5446 5450 5456 5461 5467 5472 5476 5480 5483 5486 5488 5490 5491 5491 5492 5492 5494 5496 5496 5498 5499 5499 5498 5498 5497
5339 5341 5344 5346 5349 5352 5355 5361 5368 5376 5385 5393 5401 5408 5415 5421 5426 5431 5435 5440 5445 5451 5456 5461 5465 5468 5473 5475 5478 5480 5481 5482 5483 5484 5485 5486 5487 5488 5488 5488 5488 5488 5488
5339 5341 5343 5345 5347 5348 5350 5352 5355 5362 5370 5379 5388 5395 5402 5410 5415 5420 5426 5430 5435 5440 5444 5449 5453 5457 5462 5464 5467 5469 5471 5473 5474 5475 5476 5477 5478 5479 5478 5478 5478 5478 5478
5339 5340 5342 5342 5343 5343 5344 5345 5346 5350 5356 5364 5373 5381 5389 5396 5404 5409 5415 5420 5424 5429 5434 5439 5443 5447 5450 5454 5457 5459 5461 5463 5464 5465 5466 5467 5468 5468 5468 5469 5468 5468 5467
5339 5339 5340 5340 5340 5339 5339 5338 5339 5341 5345 5351 5357 5366 5375 5382 5390 5397 5404 5410 5415 5419 5424 5429 5433 5437 5440 5443 5445 5448 5450 5452 5454 5455 5455 5456 5456 5457 5458 5458 5457 5456 5455
5337 5338 5338 5338 5338 5338 5338 5337 5337 5336 5337 5341 5346 5352 5360 5368 5376 5384 5391 5398 5403 5408 5413 5418 5422 5426 5430 5432 5435 5437 5439 5441 5443 5444 5444 5445 5445 5446 5446 5445 5445 5444 5443
5335 5335 5335 5335 5336 5336 5336 5335 5335 5335 5335 5335 5338 5342 5348 5355 5362 5370 5378 5385 5391 5397 5402 5406 5410 5414 5418 5420 5423 5425 5427 5429 5431 5432 5432 5433 5433 5433 5433 5433 5432 5432 5430
5332 5331 5331 5331 5332 5332 5332 5332 5332 5332 5332 5332 5333 5336 5339 5344 5351 5357 5364 5371 5378 5383 5389 5393 5397 5401 5405 5408 5410 5412 5414 5416 5418 5419 5419 5420 5420 5420 5420 5419 5418 5417 5416